This is the latest recevied weather packets stored in our database for station/object SV9TNF-1. If no packets are shown the sender has not sent any weather packets the latest 1 day(s).
| Time | Temp. | Humidity | Pressure | Rain* | Wind** | Luminosity | Snow |
|---|---|---|---|---|---|---|---|
| 1777960376 | 17.78° C | 49% | 1005.8 hPa | 0 mm | 5.81 m/s, 304° | - | - |
| 1777960078 | 17.78° C | 50% | 1005.8 hPa | 0 mm | 3.13 m/s, 314° | - | - |
| 1777959776 | 17.22° C | 50% | 1005.8 hPa | 0 mm | 6.71 m/s, 213° | - | - |
| 1777959476 | 17.22° C | 51% | 1005.8 hPa | 0 mm | 4.47 m/s, 156° | - | - |
| 1777959176 | 16.67° C | 52% | 1005.8 hPa | 0 mm | 5.81 m/s, 226° | - | - |
| 1777958876 | 16.67° C | 53% | 1005.8 hPa | 0 mm | 5.36 m/s, 179° | - | - |
| 1777958576 | 16.67° C | 55% | 1005.8 hPa | 0 mm | 4.02 m/s, 186° | - | - |
| 1777958276 | 16.11° C | 55% | 1005.8 hPa | 0 mm | 3.58 m/s, 302° | - | - |
| 1777957976 | 15.56° C | 57% | 1005.8 hPa | 0 mm | 2.68 m/s, 161° | - | - |
| 1777957676 | 15.56° C | 58% | 1005.8 hPa | 0 mm | 4.47 m/s, 334° | - | - |
| 1777957376 | 15.56° C | 59% | 1005.8 hPa | 0 mm | 4.02 m/s, 209° | - | - |
| 1777957075 | 15.56° C | 59% | 1005.8 hPa | 0 mm | 4.92 m/s, 311° | - | - |
| 1777956776 | 15° C | 58% | 1005.8 hPa | 0 mm | 3.58 m/s, 295° | - | - |
| 1777956475 | 15° C | 60% | 1005.8 hPa | 0 mm | 4.92 m/s, 330° | - | - |
| 1777956175 | 15° C | 59% | 1005.8 hPa | 0 mm | 6.26 m/s, 302° | - | - |
| 1777955875 | 14.44° C | 63% | 1005.8 hPa | 0 mm | 4.47 m/s, 338° | - | - |
| 1777955575 | 14.44° C | 64% | 1005.8 hPa | 0 mm | 5.81 m/s, 307° | - | - |
| 1777955275 | 14.44° C | 64% | 1005.8 hPa | 0 mm | 4.47 m/s, 334° | - | - |
| 1777954975 | 13.89° C | 66% | 1005.8 hPa | 0 mm | 6.26 m/s, 314° | - | - |
| 1777954675 | 13.89° C | 66% | 1005.8 hPa | 0 mm | 4.92 m/s, 317° | - | - |
| 1777954375 | 13.89° C | 67% | 1005.8 hPa | 0 mm | 4.92 m/s, 317° | - | - |
| 1777954075 | 13.89° C | 69% | 1005.8 hPa | 0 mm | 6.71 m/s, 322° | - | - |
| 1777953774 | 13.33° C | 69% | 1005.8 hPa | 0 mm | 4.92 m/s, 343° | - | - |
| 1777953474 | 13.33° C | 70% | 1005.4 hPa | 0 mm | 5.36 m/s, 309° | - | - |
| 1777953174 | 13.33° C | 70% | 1005.4 hPa | 0 mm | 4.47 m/s, 336° | - | - |
* Rain latest hour (hover to see other rain measurements)
** Current wind speed in m/s (hover to see current wind gust speed)